TURKSAT 5B

Last updated on Thu Nov 21 2024 00:02:44 GMT+0000 (Coordinated Universal Time)

1 50212U 21126A 24325.23105135 .00000147 00000+0 00000+0 0 9998 2 50212 0.0695 343.1786 0003976 311.2059 250.5728 1.00271037 10540
UTC large
Height (km)
Speed (km/s)
/
Latitude / Longitude
Inclination (degrees)
Orbital Period (minutes)
Azimuth
Elevation
Range (km)
Doppler Factor

Next 0 passes for location: London (51.5072 / 0.1276)

Sorry there are no passes over London.